Temperature
15 15 15 15 15 15 15 15 15 15 15 15 15 15 15 15 15 15 15 15 15 15 15 15 15 15 15 15 15 14 15 14 14 14 15 15 14 14 14 14 14 14 14
15 15 15 15 15 15 15 15 15 15 15 15 15 15 15 15 15 15 15 15 15 15 15 14 14 14 14 14 14 14 14 14 14 14 14 14 14 14 14 14 14 14 14
15 15 15 15 15 15 15 15 14 14 14 14 14 14 14 14 14 14 14 14 14 14 14 14 14 14 14 14 14 14 14 14 14 14 14 14 14 14 14 14 14 14 14
15 15 15 15 15 15 15 15 14 14 14 14 14 14 14 14 14 14 14 14 14 14 14 14 14 14 14 14 14 14 14 14 14 14 14 14 14 14 14 14 14 14 14
15 15 15 14 14 14 14 14 14 14 14 14 14 14 13 14 14 13 14 14 14 14 14 14 14 14 14 14 13 13 13 13 13 13 13 13 13 13 13 13 13 13 13
15 15 15 14 14 14 14 14 14 14 14 14 13 13 13 13 13 13 13 13 13 13 13 13 13 13 14 13 13 13 13 13 13 13 13 13 13 13 13 13 13 13 13
15 15 15 14 14 14 14 14 14 14 14 14 13 13 13 13 13 13 13 13 13 13 13 13 13 13 13 13 13 13 13 13 13 13 13 13 13 13 13 13 13 13 13
15 14 14 14 14 14 14 14 14 14 13 13 13 13 13 12 12 12 12 12 12 13 13 13 13 13 13 13 13 13 13 13 12 12 13 13 13 13 13 13 13 13 12
14 14 14 14 14 14 14 14 14 14 13 13 13 13 13 13 12 12 12 12 12 12 12 12 12 12 12 12 13 13 13 12 12 12 12 12 12 12 12 12 12 12 12
14 14 14 14 14 14 14 14 13 13 13 13 13 13 13 13 13 12 12 12 12 12 12 12 12 12 12 12 12 12 12 12 12 12 12 12 12 12 12 12 12 12 12
14 14 14 14 14 14 14 14 14 13 13 13 13 13 13 13 13 13 12 12 12 12 12 12 12 12 12 12 12 12 12 12 12 12 12 12 12 12 12 11 11 11 11
14 14 14 14 14 14 14 14 14 14 14 14 13 13 13 13 13 13 12 12 12 12 12 12 12 12 12 12 12 12 12 12 12 12 11 11 11 11 11 11 11 11 11
14 14 14 14 14 14 14 14 14 14 14 14 13 13 13 13 13 13 13 12 12 11 11 12 12 12 12 12 12 12 11 11 11 11 11 11 11 11 11 11 11 11 11
15 14 14 14 14 14 14 14 14 14 14 13 13 13 13 13 13 13 13 13 12 12 12 12 12 11 11 11 11 11 11 11 11 11 11 11 11 11 11 11 10 10 10
15 15 14 14 14 14 14 14 14 14 14 14 13 13 13 13 13 13 13 13 13 12 12 11 11 11 11 11 11 11 11 11 11 11 11 11 11 11 11 10 10 10 10
15 15 14 14 14 14 14 14 14 14 14 14 13 13 13 13 13 13 13 12 12 12 12 12 11 11 11 11 11 11 11 11 11 11 11 11 10 10 10 10 10 10 10
15 14 14 14 14 14 14 14 14 14 14 13 13 13 13 13 13 13 12 12 12 12 12 12 11 11 11 11 11 11 11 11 10 10 10 10 10 10 10 10 10 10 10
15 14 14 14 14 14 14 14 14 14 14 13 13 13 13 13 13 13 12 12 12 12 12 12 11 11 11 11 11 10 10 10 10 10 10 10 10 10 10 10 10 10 10
15 14 14 14 14 14 14 14 14 14 13 13 13 13 13 13 13 12 12 12 12 12 12 12 11 11 11 11 10 10 10 10 10 10 10 10 10 10 10 10 10 9 9
14 14 14 14 14 14 14 14 14 13 13 13 13 13 13 13 13 12 12 12 12 12 12 11 11 11 11 10 10 10 10 10 10 10 10 10 10 10 10 9 9 9 9
14 14 14 14 14 14 14 13 13 13 13 13 13 13 13 13 13 12 12 12 12 12 12 11 11 11 11 11 11 10 10 10 10 10 10 10 9 9 9 9 9 9 9
14 14 14 14 13 13 13 13 13 13 13 13 13 13 13 13 12 12 12 12 12 12 12 12 11 11 11 11 11 10 10 10 9 10 10 10 9 9 9 9 9 9 9
14 14 13 13 13 13 13 13 13 13 13 13 13 12 12 12 12 12 12 12 12 12 12 11 11 11 11 11 11 10 10 10 10 10 9 9 9 9 9 9 9 9 9
13 13 13 13 13 13 13 13 13 12 12 12 12 12 12 12 12 12 12 12 12 11 11 11 11 11 11 10 10 10 10 10 9 9 9 9 9 9 9 9 9 9 8
13 13 13 13 12 12 12 12 12 12 12 12 12 12 12 12 12 11 11 11 11 11 11 11 11 10 10 10 10 9 9 9 9 9 9 9 9 9 9 9 9 9 8
12 12 12 12 12 12 12 12 12 12 12 12 12 11 11 11 11 11 11 11 11 11 11 11 10 10 10 10 9 9 9 9 9 9 9 9 9 8 8 9 9 8 8
Wind_Speed
3 3 3 4 5 6 6 6 7 7 7 7 9 9 8 9 10 9 9 11 11 10 10 10 11 11 11 10 10 10 10 10 10 9 9 9 9 8 8 8 8 8 8
5 4 4 4 5 6 7 7 6 6 5 6 6 8 8 8 9 9 9 9 11 11 11 11 11 11 11 10 10 10 10 10 11 11 10 10 9 9 9 9 9 9 9
7 6 4 4 5 7 8 7 7 6 5 5 5 6 6 7 8 9 9 10 9 11 12 11 11 10 10 10 10 10 10 10 10 10 11 11 10 10 9 9 8 9 9
9 7 4 3 5 7 6 5 4 5 5 4 4 4 4 5 6 8 9 9 9 9 11 12 12 11 10 10 10 10 10 10 10 10 10 10 10 10 9 9 8 9 9
9 8 5 4 6 6 4 4 4 4 4 4 4 4 4 4 4 6 7 7 8 8 9 10 11 11 11 10 10 10 9 9 10 10 10 10 9 9 9 9 9 9 10
8 8 5 5 6 4 4 4 4 3 3 3 5 5 4 3 4 4 4 6 7 7 8 9 9 9 10 10 10 10 9 9 9 9 9 9 9 9 9 9 9 9 9
8 7 5 5 5 4 4 4 4 4 3 3 4 4 4 4 4 3 4 4 5 6 7 8 8 8 8 9 9 9 9 8 8 8 8 9 9 9 9 8 9 9 9
7 7 6 4 4 4 4 4 3 3 1 1 3 2 2 4 4 4 3 3 4 5 5 6 7 7 7 7 7 8 7 8 8 9 9 9 9 10 9 8 9 10 10
6 7 6 5 4 4 4 3 3 3 2 0 1 3 3 2 1 3 3 3 3 3 3 4 5 6 6 7 6 7 7 7 7 8 8 9 9 9 10 9 10 10 10
5 6 6 6 4 3 4 3 3 2 3 1 0 0 2 3 3 0 3 3 3 3 2 3 4 5 6 6 6 7 8 8 7 7 8 8 8 9 9 10 10 10 9
3 5 6 5 4 3 4 3 3 2 2 2 2 1 2 2 2 3 1 2 2 2 2 2 2 3 4 4 5 7 8 8 7 7 7 7 7 8 8 9 9 9 9
1 2 4 5 4 3 4 3 3 3 2 2 2 2 2 2 2 2 2 1 1 2 2 1 1 1 2 3 4 5 6 6 7 7 6 7 7 7 8 8 8 8 8
2 4 4 4 3 4 4 4 3 3 2 2 3 2 2 2 2 3 3 2 0 1 1 2 1 0 1 2 3 4 5 5 6 6 7 7 7 6 7 7 8 8 7
4 5 5 5 4 5 4 4 3 3 3 3 3 3 2 1 2 3 3 3 2 1 1 2 1 0 1 2 2 3 4 4 5 6 6 6 6 6 6 6 6 6 6
4 5 5 5 4 4 4 4 3 3 3 3 3 3 2 1 2 2 3 4 4 2 1 2 1 1 1 2 2 3 3 4 3 3 4 4 5 5 5 5 5 6 6
3 4 5 4 4 4 4 4 3 3 4 3 3 3 2 1 2 2 3 2 3 4 2 2 2 1 2 2 2 3 3 3 3 3 3 3 4 4 4 5 5 5 5
3 4 4 5 5 5 4 4 4 5 5 3 3 3 3 3 2 2 3 3 3 3 3 1 1 0 1 2 2 2 3 3 3 2 2 2 3 3 3 3 3 4 3
4 4 4 4 4 4 4 5 5 5 5 5 4 4 4 3 3 3 3 3 3 3 4 3 1 0 1 2 2 2 2 2 3 3 3 3 3 2 2 2 2 3 2
5 4 4 4 4 4 4 4 5 5 5 5 5 5 5 4 4 3 4 4 3 3 3 3 2 1 0 1 1 0 1 1 2 3 3 4 3 3 3 3 3 3 3
5 5 5 5 5 4 5 4 4 4 4 4 5 6 6 6 6 5 5 4 4 4 3 3 2 1 1 1 2 1 0 1 1 1 2 3 4 4 4 4 4 4 4
5 5 4 4 3 3 4 4 4 4 4 3 3 4 5 6 7 6 5 5 6 4 4 3 3 2 2 2 3 2 2 1 2 1 1 2 2 3 4 5 6 6 6
4 4 4 4 4 3 4 5 4 4 4 4 4 4 4 5 7 8 8 8 8 7 7 5 4 4 5 4 3 3 3 2 2 2 2 2 2 2 5 6 7 7 7
4 4 4 4 4 5 5 5 6 4 4 4 4 4 3 4 6 5 6 6 7 8 9 8 7 7 6 6 6 5 4 4 4 3 2 2 2 3 6 7 9 9 9
4 4 4 4 4 4 5 5 6 4 4 4 5 5 5 4 4 6 5 4 4 5 6 6 7 7 7 7 8 7 6 3 1 1 3 3 2 3 4 6 9 9 9
4 4 5 5 4 5 6 6 4 3 3 3 3 4 5 5 6 6 6 5 5 4 6 7 8 7 8 8 8 4 4 3 2 2 2 3 2 2 2 3 7 8 10
4 4 4 5 5 5 6 6 5 3 3 3 2 3 5 6 6 7 6 6 7 6 4 4 4 5 5 6 9 8 7 5 3 3 3 3 2 1 2 2 3 6 7
Wind_Direction
109 103 83 78 74 78 82 83 81 77 74 72 77 78 72 65 63 56 53 63 67 68 76 83 86 85 85 85 84 84 84 81 80 81 84 89 91 97 101 101 103 104 104
119 104 90 80 77 82 88 90 86 83 77 76 74 75 75 69 65 64 54 53 62 67 68 75 82 83 85 86 82 79 80 80 80 80 80 84 88 89 95 98 100 99 97
117 108 95 83 81 89 92 88 80 76 75 72 65 68 73 70 70 65 58 55 57 61 62 65 73 77 81 85 83 77 78 81 82 81 79 77 77 81 84 91 95 97 97
116 109 98 88 91 94 92 88 82 77 70 68 63 56 60 67 69 68 64 61 60 59 59 61 65 70 73 77 79 77 77 81 80 80 78 77 75 77 80 85 92 96 96
117 113 107 103 100 92 89 97 86 94 88 79 75 61 50 55 61 66 62 62 63 62 60 58 59 62 65 69 76 77 77 78 80 77 74 75 74 76 81 85 91 94 94
117 115 110 104 101 90 82 89 93 80 90 92 82 62 41 40 51 53 57 61 63 64 62 59 54 53 58 64 69 72 73 74 79 81 77 73 73 77 81 87 89 93 93
121 117 108 101 98 102 108 105 101 89 74 90 84 52 25 26 38 33 45 58 57 61 64 61 57 52 51 53 59 64 67 69 72 79 79 76 75 76 80 91 95 93 92
125 123 117 115 112 108 101 100 106 101 94 90 106 96 41 10 4 15 23 49 51 61 65 63 62 58 55 54 51 57 67 72 73 76 78 77 72 67 76 93 97 95 92
131 133 132 127 123 125 130 132 130 124 146 268 119 134 139 185 334 353 5 23 36 54 52 64 64 62 60 60 56 56 65 72 77 75 77 77 73 70 74 89 97 97 93
144 145 148 143 141 140 144 157 148 140 140 166 293 96 140 147 143 47 342 354 17 42 42 63 67 67 67 67 61 61 65 72 80 78 79 80 79 78 79 85 90 97 96
162 157 157 154 152 155 161 160 146 148 148 155 162 137 86 76 98 133 194 323 353 2 21 51 79 77 76 79 73 67 66 70 77 75 78 80 82 82 85 90 92 92 91
197 180 168 166 167 165 170 173 171 169 171 157 152 146 144 143 159 139 154 205 293 317 346 15 47 86 99 98 85 79 76 74 76 73 76 80 82 85 86 87 88 88 86
203 207 188 180 179 183 183 173 171 182 174 169 173 176 171 175 160 145 138 155 182 305 346 347 342 94 100 111 108 94 88 83 81 79 79 80 80 81 83 83 85 84 81
204 201 190 189 192 189 184 170 175 183 173 185 189 175 164 180 160 154 152 147 123 357 349 297 331 299 126 134 127 120 113 94 88 83 80 80 80 80 83 86 83 82 80
201 192 186 185 189 189 182 170 178 194 182 190 188 175 167 176 163 162 151 151 150 161 248 268 289 288 190 153 149 147 145 130 115 102 94 91 91 92 91 89 87 82 78
191 185 190 189 186 186 183 176 184 196 177 190 186 173 178 173 151 148 153 150 145 153 182 234 231 226 176 162 167 166 172 152 143 132 117 107 107 105 101 93 92 92 85
186 187 191 191 192 193 189 184 193 185 182 193 194 183 194 176 163 168 153 143 137 134 151 229 253 172 147 157 149 173 183 176 178 167 157 144 130 117 114 109 115 112 101
193 192 184 186 193 198 191 188 195 190 186 195 200 187 199 179 174 172 164 163 159 149 146 162 200 170 194 190 166 170 182 194 204 203 192 183 175 171 157 146 139 141 137
195 193 182 186 193 196 197 200 193 188 189 198 196 193 198 176 184 182 176 172 167 154 138 149 179 188 173 169 122 167 168 198 216 220 212 212 210 206 199 192 187 186 181
192 196 194 195 202 199 196 197 190 186 193 201 200 198 196 191 194 186 181 179 165 150 145 147 161 178 181 176 143 168 254 293 263 227 221 225 222 222 220 215 214 210 206
194 193 188 192 196 198 200 190 188 187 188 199 208 203 197 194 193 187 183 181 168 164 161 163 171 172 189 182 198 192 194 245 295 245 242 246 228 227 231 231 229 226 222
192 182 183 185 192 209 206 197 186 189 189 191 205 215 212 201 203 197 192 185 178 174 178 177 186 196 208 203 187 179 168 162 257 250 178 255 214 239 241 233 236 235 232
190 192 194 186 198 213 203 197 196 183 190 196 200 205 210 204 195 194 204 199 197 198 189 182 188 203 200 199 181 183 192 194 216 219 166 238 236 249 248 245 244 240 237
195 196 199 197 201 223 218 209 200 185 194 203 200 196 194 203 200 189 184 190 205 215 210 199 202 208 204 196 189 190 190 187 231 231 172 212 234 247 257 245 246 242 238
205 205 197 195 203 230 227 216 195 174 189 207 208 195 189 199 211 189 179 193 210 230 225 217 217 213 211 204 185 155 159 166 226 244 197 190 224 253 263 258 249 249 243
205 202 206 205 206 220 224 215 196 176 191 213 221 221 212 206 207 196 189 195 210 222 209 212 218 221 212 209 197 188 186 186 193 229 210 185 201 177 274 270 247 252 248
Height
1547 1547 1547 1547 1547 1547 1547 1547 1547 1547 1546 1546 1546 1546 1545 1545 1544 1544 1543 1543 1542 1542 1542 1542 1541 1541 1541 1540 1540 1540 1539 1539 1538 1538 1537 1537 1537 1537 1537 1537 1537 1537 1538
1548 1548 1548 1548 1548 1548 1548 1548 1548 1548 1548 1547 1547 1547 1546 1546 1546 1545 1545 1544 1544 1544 1543 1543 1543 1542 1542 1542 1541 1541 1541 1540 1539 1539 1538 1538 1538 1538 1538 1538 1538 1538 1538
1549 1549 1549 1549 1549 1549 1549 1549 1549 1549 1549 1549 1548 1548 1548 1547 1547 1547 1546 1545 1545 1545 1545 1544 1544 1544 1543 1543 1543 1542 1542 1541 1540 1540 1539 1539 1538 1538 1538 1538 1538 1538 1539
1550 1550 1550 1550 1550 1550 1550 1550 1550 1550 1550 1550 1550 1549 1549 1549 1548 1548 1548 1547 1547 1546 1546 1545 1545 1545 1545 1544 1544 1543 1543 1542 1541 1541 1540 1540 1539 1539 1539 1539 1539 1539 1539
1551 1551 1551 1551 1551 1551 1551 1551 1551 1551 1551 1551 1551 1550 1550 1550 1550 1550 1549 1549 1548 1548 1547 1547 1547 1546 1546 1545 1545 1544 1544 1543 1543 1542 1541 1540 1540 1539 1539 1539 1539 1539 1539
1551 1551 1551 1551 1551 1551 1551 1551 1552 1552 1552 1552 1552 1552 1551 1551 1551 1551 1551 1550 1550 1549 1549 1549 1548 1548 1547 1546 1546 1545 1545 1544 1543 1543 1542 1541 1540 1539 1538 1538 1539 1539 1540
1551 1551 1551 1551 1552 1552 1552 1552 1552 1552 1552 1552 1552 1552 1553 1552 1552 1552 1552 1551 1551 1551 1550 1550 1549 1549 1548 1547 1546 1546 1545 1545 1544 1543 1542 1541 1540 1539 1537 1536 1538 1539 1540
1551 1552 1552 1552 1552 1552 1552 1552 1552 1552 1552 1553 1553 1552 1553 1555 1553 1553 1553 1552 1552 1552 1551 1550 1550 1549 1549 1548 1547 1547 1546 1545 1545 1544 1543 1542 1541 1538 1534 1533 1536 1539 1540
1551 1552 1552 1552 1552 1552 1552 1552 1552 1552 1552 1553 1553 1553 1553 1553 1554 1554 1553 1553 1552 1552 1552 1551 1550 1550 1549 1548 1548 1547 1546 1546 1545 1545 1544 1543 1541 1539 1534 1533 1536 1539 1541
1551 1551 1552 1552 1552 1552 1552 1552 1552 1553 1553 1553 1553 1553 1554 1553 1553 1553 1554 1553 1553 1552 1552 1551 1550 1550 1549 1549 1548 1548 1547 1546 1546 1545 1545 1544 1543 1541 1539 1539 1540 1541 1542
1550 1551 1551 1551 1552 1552 1552 1552 1552 1553 1553 1553 1553 1553 1553 1553 1553 1553 1553 1553 1553 1552 1551 1551 1550 1550 1549 1549 1548 1548 1547 1547 1546 1546 1545 1545 1544 1543 1542 1541 1542 1542 1543
1549 1549 1550 1550 1551 1551 1552 1552 1552 1552 1552 1552 1552 1552 1552 1552 1552 1552 1552 1552 1552 1552 1552 1551 1550 1550 1549 1549 1548 1548 1548 1547 1547 1546 1546 1545 1545 1545 1544 1543 1543 1543 1543
1547 1548 1549 1549 1550 1550 1551 1551 1551 1551 1552 1552 1552 1552 1552 1552 1552 1551 1551 1551 1551 1551 1551 1551 1550 1550 1549 1549 1549 1548 1548 1548 1547 1547 1546 1546 1546 1545 1545 1545 1544 1544 1544
1546 1547 1547 1548 1548 1549 1549 1550 1550 1550 1550 1550 1550 1551 1551 1551 1551 1551 1551 1551 1550 1551 1550 1550 1550 1549 1549 1549 1549 1548 1548 1548 1547 1547 1547 1546 1546 1546 1546 1545 1545 1545 1545
1544 1545 1545 1546 1547 1547 1548 1549 1549 1549 1549 1549 1549 1549 1549 1549 1550 1550 1550 1550 1551 1550 1550 1550 1549 1549 1549 1549 1549 1548 1548 1548 1548 1547 1547 1547 1547 1546 1546 1546 1545 1545 1545
1542 1543 1544 1544 1545 1546 1546 1547 1547 1547 1548 1548 1548 1548 1548 1548 1548 1549 1549 1549 1549 1549 1549 1549 1549 1549 1549 1548 1548 1548 1548 1548 1548 1547 1547 1547 1547 1546 1546 1546 1545 1545 1545
1540 1541 1542 1542 1543 1544 1544 1545 1545 1546 1546 1546 1546 1546 1546 1547 1547 1547 1548 1548 1548 1548 1548 1548 1548 1548 1548 1548 1548 1548 1548 1548 1547 1547 1547 1546 1546 1546 1546 1545 1545 1545 1545
1537 1539 1539 1540 1541 1541 1542 1543 1543 1544 1544 1544 1544 1545 1545 1545 1545 1546 1546 1546 1546 1547 1547 1547 1547 1547 1547 1547 1547 1547 1547 1547 1547 1546 1546 1546 1546 1545 1545 1545 1545 1544 1544
1535 1536 1537 1537 1538 1539 1539 1540 1541 1541 1542 1542 1543 1543 1543 1543 1543 1544 1544 1544 1545 1545 1546 1546 1546 1546 1546 1546 1546 1546 1546 1546 1546 1546 1545 1545 1545 1545 1544 1544 1544 1543 1543
1532 1533 1534 1534 1535 1536 1537 1537 1538 1539 1539 1539 1540 1540 1541 1541 1541 1542 1542 1543 1543 1543 1544 1544 1544 1544 1545 1545 1545 1545 1545 1545 1544 1544 1544 1544 1544 1543 1543 1543 1542 1542 1541
1529 1530 1531 1531 1532 1533 1533 1534 1535 1536 1536 1536 1537 1537 1538 1538 1539 1539 1540 1540 1541 1541 1541 1541 1542 1542 1542 1542 1542 1543 1543 1543 1543 1543 1542 1542 1542 1541 1541 1541 1540 1540 1540
1526 1527 1527 1528 1529 1529 1530 1531 1532 1532 1533 1533 1534 1534 1535 1535 1536 1537 1537 1538 1538 1538 1538 1538 1539 1539 1539 1540 1540 1540 1541 1540 1540 1541 1540 1540 1540 1539 1539 1539 1538 1538 1538
1523 1523 1524 1525 1525 1526 1527 1528 1528 1529 1529 1530 1530 1531 1531 1532 1533 1533 1534 1534 1535 1535 1536 1536 1536 1536 1536 1537 1537 1538 1538 1537 1537 1538 1538 1537 1537 1536 1537 1536 1536 1536 1535
1519 1519 1520 1520 1521 1522 1523 1523 1524 1524 1525 1526 1527 1527 1528 1528 1529 1530 1530 1530 1531 1531 1532 1532 1533 1533 1534 1534 1534 1535 1535 1535 1535 1535 1535 1534 1534 1533 1533 1533 1533 1533 1532
1514 1515 1516 1516 1517 1518 1519 1520 1520 1520 1521 1521 1522 1523 1524 1524 1525 1526 1526 1526 1527 1527 1528 1529 1529 1530 1530 1531 1531 1531 1531 1531 1531 1531 1532 1531 1531 1530 1530 1530 1530 1530 1529
1510 1511 1511 1512 1513 1514 1514 1515 1516 1516 1516 1517 1518 1519 1519 1520 1520 1521 1521 1522 1522 1523 1524 1524 1525 1525 1526 1526 1527 1527 1527 1528 1527 1527 1528 1528 1527 1527 1526 1526 1526 1526 1526